Temperature
17 17 17 17 17 18 20 21 22 22 22 21 21 21 19 18 17 15 14 14 14 14 14 14 14 14 14 14 14 14 15 15 15 15 15 15 15 15 15 15 15 15 15 15 15 15 15 15 15
17 17 17 18 18 18 20 21 21 21 21 20 20 20 19 17 15 14 13 14 14 14 14 14 14 14 14 14 14 14 14 14 14 14 15 15 15 15 15 15 15 15 15 15 15 15 15 15 15
16 16 17 18 19 19 20 21 20 20 20 20 19 18 17 16 14 13 13 13 13 13 13 13 14 14 14 14 14 14 14 14 14 14 14 14 14 15 15 15 15 15 15 15 15 15 15 15 15
16 17 18 18 19 19 20 20 20 20 20 19 19 17 15 14 14 13 13 13 13 13 13 13 13 14 14 14 14 14 14 14 14 14 14 14 14 14 15 15 15 15 15 15 15 15 15 15 15
16 17 17 18 18 19 20 21 21 20 19 19 19 17 14 13 13 13 13 13 13 13 13 13 13 13 13 13 13 14 14 14 14 14 14 14 14 14 14 14 14 14 14 14 14 14 15 15 15
17 18 17 17 18 19 19 20 20 19 19 18 18 17 13 13 13 13 12 12 12 12 12 13 13 13 13 13 13 13 13 13 13 13 13 13 14 14 14 14 14 14 14 14 14 14 14 14 14
17 17 17 18 18 18 19 19 19 18 17 17 17 16 13 12 12 12 12 12 12 12 12 12 12 13 13 13 13 13 13 13 13 13 13 13 13 13 14 14 14 14 14 14 14 14 14 14 14
16 16 17 18 18 17 18 18 18 17 16 16 16 15 13 12 12 11 11 12 12 12 12 12 12 12 12 13 13 13 13 13 13 13 13 13 13 13 13 13 13 13 13 14 14 14 14 14 14
16 15 16 17 17 17 17 17 16 16 15 14 14 13 12 12 11 11 11 11 11 11 11 11 11 12 12 12 12 12 12 12 12 12 12 12 12 12 13 13 13 13 13 13 13 13 13 13 13
16 14 15 16 16 16 16 16 16 16 14 13 12 12 12 11 11 11 10 10 10 11 11 11 11 11 11 11 12 12 12 12 12 12 12 12 12 12 12 12 12 12 13 13 13 13 13 13 13
15 14 15 15 15 15 15 15 15 15 13 13 12 11 11 11 10 10 10 10 10 10 10 11 11 11 11 11 11 11 11 11 12 12 12 11 11 11 12 12 12 12 12 12 12 12 12 12 12
15 14 15 14 14 14 14 14 14 13 13 12 12 12 11 10 10 10 10 9 9 10 10 10 10 10 10 10 10 11 11 11 11 11 11 11 11 11 11 11 11 11 11 12 12 12 12 12 12
14 14 14 13 13 13 13 13 12 12 12 12 12 11 10 10 9 9 9 9 9 9 10 10 10 10 10 10 10 10 10 10 10 10 10 10 10 10 11 11 11 11 11 11 11 11 11 11 11
13 13 13 13 13 12 12 12 12 11 11 11 11 10 10 9 9 9 9 9 9 9 9 9 9 9 9 10 10 9 9 10 10 10 10 10 10 10 10 10 10 10 10 10 11 10 11 11 11
13 12 12 13 13 12 12 11 11 11 11 11 10 10 9 9 9 8 8 8 8 8 8 9 9 9 9 9 9 9 9 9 9 9 9 9 9 9 9 9 9 9 10 10 10 10 10 10 10
13 12 11 12 13 12 11 10 11 11 11 11 10 9 9 8 8 8 8 8 8 8 8 8 8 8 8 8 8 8 8 8 8 8 8 9 8 9 9 9 9 9 9 9 9 9 10 10 10
12 11 12 12 12 12 11 10 11 11 11 11 10 9 9 8 8 7 7 7 7 7 7 7 7 7 7 7 8 8 8 8 8 8 8 8 8 8 8 8 8 8 8 8 9 9 9 9 9
11 11 12 12 11 11 11 10 10 10 11 10 10 9 9 8 7 7 7 7 7 7 7 7 7 7 7 7 7 7 7 7 7 7 7 7 7 7 7 7 7 8 8 8 8 8 8 9 9
11 11 11 11 11 10 10 10 9 10 10 9 9 9 8 7 7 6 6 6 6 6 6 6 6 6 6 6 6 6 6 6 6 6 6 6 6 7 7 7 7 7 7 7 7 8 8 8 8
10 10 10 10 11 10 9 9 9 9 9 9 8 8 8 7 6 6 5 5 5 5 5 5 6 5 5 6 6 5 5 5 5 5 5 6 6 6 6 6 6 6 6 7 7 7 7 7 7
10 9 9 9 9 10 9 8 9 9 9 8 8 7 7 7 6 5 5 5 5 4 5 5 5 5 5 5 5 5 5 5 5 5 5 5 5 5 5 6 6 6 6 6 6 6 6 6 6
8 9 9 9 8 7 8 7 8 8 8 8 7 7 7 6 6 5 5 4 4 4 4 4 4 4 4 4 4 4 4 4 4 4 4 4 5 5 5 5 5 5 5 5 5 5 5 6 6
8 8 8 8 7 7 8 6 7 8 7 7 6 7 6 6 5 5 4 4 4 3 4 4 4 4 4 4 4 4 4 3 4 4 4 4 4 4 4 4 4 4 4 5 5 5 5 5 5
8 8 7 7 7 5 7 7 7 7 7 6 6 6 6 5 5 4 4 4 3 3 3 3 3 3 3 3 3 3 3 3 3 3 3 3 3 4 4 4 4 4 4 4 4 4 4 4 4
7 6 5 5 5 6 7 7 6 7 7 6 6 6 5 5 4 4 3 3 3 3 3 3 3 3 3 3 3 3 3 3 3 3 3 3 3 3 3 3 3 3 3 3 3 3 3 3 3
6 6 5 5 6 6 7 6 6 6 6 6 6 5 5 4 4 3 3 3 3 2 2 2 2 2 2 2 2 2 2 2 2 2 2 2 2 2 3 2 3 2 2 2 3 3 3 3 3
6 5 6 5 5 4 6 7 6 6 5 5 5 5 4 4 3 2 2 2 2 2 2 2 2 2 2 1 1 1 1 1 1 1 1 1 2 2 2 2 2 2 2 2 2 2 2 2 2
6 6 5 4 4 5 7 7 5 5 4 4 4 4 4 3 2 2 2 2 2 1 1 1 1 1 1 1 1 1 1 1 1 1 1 1 1 1 2 2 2 2 2 2 2 2 2 2 2
5 5 4 4 4 4 5 5 6 5 4 4 3 4 3 2 2 1 1 1 1 1 0 0 0 0 0 0 0 0 0 0 0 0 0 1 1 1 1 1 1 1 1 1 1 1 1 1 1
5 5 4 3 3 4 4 4 5 4 4 4 3 3 2 2 1 1 1 1 0 0 -0 -0 -0 -0 -1 -1 -0 -0 -0 -0 -0 -0 -0 0 0 1 1 1 1 1 1 1 1 1 0 0 0
Wind_Speed
14 12 6 3 3 4 6 3 1 2 3 5 6 5 6 6 5 5 2 5 6 6 8 7 8 8 8 8 8 8 9 9 9 8 8 8 8 8 7 7 6 6 6 6 6 6 7 7 7
12 8 4 4 4 5 5 3 1 4 4 5 5 4 5 6 7 6 3 5 6 7 8 7 8 8 8 9 9 9 9 9 9 9 9 8 8 8 8 7 7 5 5 5 5 6 6 7 6
9 7 4 4 4 4 2 3 6 6 5 3 3 4 4 5 6 4 3 3 5 7 9 9 8 8 8 8 9 9 9 9 9 9 9 8 8 8 8 7 7 6 5 4 5 5 6 6 5
4 3 4 5 6 3 3 2 5 4 3 3 3 4 5 7 4 4 3 4 5 7 9 9 9 8 8 8 8 8 8 8 8 9 8 8 8 8 8 7 7 6 6 5 5 5 5 5 5
4 3 4 6 6 4 2 2 3 3 2 2 2 3 5 5 7 7 4 4 5 6 8 8 8 8 7 7 7 7 7 7 7 8 8 8 8 7 7 7 7 6 5 5 5 4 3 4 4
3 3 5 7 6 4 2 2 1 2 2 2 2 2 5 5 7 5 4 4 5 6 8 8 7 7 7 7 6 6 6 6 6 6 7 7 7 7 6 6 6 6 5 4 4 4 2 3 3
4 4 6 6 5 4 2 1 2 1 1 2 2 2 5 5 5 4 5 5 6 7 7 7 7 7 7 7 7 6 6 6 6 6 7 7 6 6 6 6 6 5 5 4 3 3 1 2 3
4 4 6 6 5 4 2 1 4 4 3 3 4 2 3 3 4 4 5 5 6 6 6 6 6 6 6 6 6 6 6 6 6 6 6 6 5 6 6 6 6 6 5 4 3 3 1 1 2
4 4 5 4 4 1 1 1 2 4 3 3 5 5 6 6 5 5 5 5 6 7 6 6 6 6 6 5 5 5 5 5 5 5 5 5 5 5 5 6 6 5 4 4 3 3 1 1 1
3 3 3 3 3 1 1 1 1 3 3 1 3 5 7 6 5 4 4 4 4 5 5 5 6 7 7 5 4 4 4 4 4 5 6 5 5 5 5 5 5 4 4 3 3 3 2 0 1
2 3 2 3 5 3 3 3 2 1 1 0 2 4 5 5 4 4 3 3 3 3 4 5 5 6 6 5 5 5 4 4 5 6 5 5 6 6 6 5 5 4 4 3 2 2 1 1 1
3 2 2 2 3 2 2 3 3 3 1 2 3 5 5 4 3 3 3 3 3 3 4 4 5 5 6 6 5 5 4 4 5 5 6 5 4 4 4 4 4 4 4 3 3 2 2 1 1
4 3 1 1 2 2 2 2 2 2 2 2 4 4 4 4 3 3 3 3 3 4 4 4 5 4 5 5 5 5 5 5 5 5 6 6 4 3 3 3 4 4 4 3 3 3 3 2 3
1 1 2 2 3 2 3 3 3 2 1 1 3 3 3 4 3 3 3 3 3 3 3 3 3 4 5 4 4 4 5 4 5 5 6 5 4 3 3 3 3 4 4 4 3 2 2 2 2
2 3 4 5 4 2 2 5 5 4 3 2 2 3 4 3 3 3 3 3 3 3 3 3 3 4 4 4 4 4 5 5 5 5 5 5 5 4 3 2 2 3 4 4 3 2 2 2 2
5 5 5 4 4 3 4 7 3 4 4 4 3 3 4 4 4 3 4 4 4 4 5 4 5 5 4 4 4 4 5 5 4 5 5 5 5 5 4 2 2 4 4 3 2 2 2 2 2
5 5 6 3 4 3 6 5 3 3 4 4 4 3 3 4 4 4 4 4 5 5 5 4 4 4 4 4 4 4 5 5 4 5 5 5 5 4 4 3 3 3 3 3 2 2 1 1 2
4 5 6 4 2 4 6 6 3 3 5 4 3 3 3 4 3 4 4 5 5 5 4 4 4 3 3 3 3 3 4 4 5 5 5 6 5 5 4 3 3 3 2 2 2 2 2 1 1
6 6 7 4 1 4 7 8 6 5 4 3 3 3 3 3 4 4 4 5 5 5 5 4 4 4 3 2 2 3 2 3 3 4 5 5 5 5 4 3 3 3 2 2 2 2 2 1 1
5 6 6 4 2 4 7 9 6 5 4 2 2 2 3 3 3 4 4 4 4 4 4 4 3 3 3 2 2 1 2 2 2 4 4 4 4 4 4 4 2 2 2 2 2 2 1 1 1
5 5 5 6 5 5 6 7 5 4 4 3 2 1 2 3 3 3 3 4 4 4 4 4 3 3 3 3 2 2 2 2 2 3 3 3 4 3 3 3 3 2 2 1 1 1 1 1 1
5 4 6 6 5 4 3 5 4 5 6 5 3 2 1 3 3 3 3 3 3 3 3 3 3 3 3 2 2 2 2 2 3 2 3 3 4 3 3 3 2 2 2 2 1 1 1 0 1
2 4 6 7 6 6 5 5 4 5 5 5 3 2 2 3 3 3 3 2 2 2 2 2 2 2 3 2 2 1 2 2 2 2 2 3 2 3 3 3 2 2 1 2 2 2 2 1 1
3 4 5 5 3 5 6 5 3 3 4 4 4 3 3 3 3 3 2 2 2 2 2 1 2 2 2 2 2 2 2 3 3 3 3 3 2 1 2 2 2 2 1 1 1 1 2 1 1
2 1 1 1 3 5 2 3 4 1 3 4 5 3 3 3 3 2 1 1 1 1 1 1 2 2 2 2 2 3 2 2 2 3 3 3 2 1 2 2 2 2 1 1 1 1 1 1 1
2 2 1 2 3 3 2 4 2 3 4 4 3 3 2 3 2 1 1 1 0 0 1 1 2 2 2 2 2 2 2 2 2 3 3 3 2 2 1 1 2 2 2 2 1 1 1 1 1
1 2 2 2 4 4 5 3 1 3 4 3 2 2 2 2 2 2 2 1 1 0 1 1 2 3 3 3 3 2 2 2 3 3 3 2 2 2 1 1 1 2 1 1 1 1 1 1 1
2 2 1 1 2 4 4 2 2 2 1 1 1 1 1 2 2 2 2 2 1 1 1 1 2 2 3 3 3 3 3 3 3 3 3 3 3 2 1 1 1 2 1 1 1 1 1 1 1
2 1 1 3 3 3 4 3 1 2 2 2 1 0 1 1 1 2 2 2 2 3 2 2 2 2 3 3 3 3 3 3 3 3 3 3 2 2 1 1 1 1 1 1 1 1 1 1 1
1 2 2 1 4 3 4 4 2 4 3 3 2 2 2 2 1 1 2 2 2 3 3 2 2 2 2 3 4 3 3 3 2 3 3 3 2 2 1 1 1 1 1 1 1 2 2 1 2
Wind_Direction
300 274 258 258 244 231 239 241 267 58 42 44 32 28 44 34 37 94 114 45 63 79 83 77 64 61 58 56 56 55 52 48 51 51 51 51 50 52 55 59 64 70 72 76 83 90 90 86 82
293 283 268 243 241 236 230 214 130 61 69 64 39 25 56 68 73 89 64 32 58 70 83 77 69 64 61 59 58 56 52 49 51 53 52 51 49 47 47 50 52 58 65 67 79 90 99 97 89
276 269 256 242 239 248 245 81 80 73 69 79 70 33 37 55 68 73 50 31 61 67 79 79 72 67 64 63 59 56 53 50 49 52 52 50 48 46 44 45 46 49 55 65 74 89 100 103 99
271 248 244 247 245 260 297 54 90 98 83 65 102 86 75 45 52 73 62 45 68 69 76 80 72 66 64 65 61 57 54 50 50 50 49 47 45 45 43 41 42 46 48 58 70 82 100 109 109
246 245 238 237 245 257 306 352 98 118 115 106 96 102 91 62 63 74 65 51 62 70 71 81 74 64 62 64 61 57 53 52 53 51 46 44 44 44 42 37 32 36 49 53 56 68 101 110 113
254 241 239 236 233 230 253 284 110 109 94 85 92 104 95 81 65 61 69 59 60 67 69 81 72 67 60 60 60 57 54 54 55 52 47 43 41 41 40 38 32 32 43 52 50 44 77 110 120
264 256 251 254 243 251 263 342 62 81 73 34 7 86 113 81 64 61 67 65 59 61 68 72 69 64 61 57 57 58 52 53 53 52 49 46 45 42 41 41 36 34 37 43 47 37 64 121 128
291 274 250 250 241 253 305 21 42 25 27 23 20 53 94 85 81 70 63 62 60 56 56 61 65 63 58 56 52 54 53 50 47 47 46 44 41 39 38 39 38 35 33 34 40 35 64 128 142
274 256 247 256 259 230 59 35 62 59 59 38 47 50 75 100 95 82 63 54 48 46 42 43 43 43 46 54 51 49 53 46 42 37 37 39 35 36 37 37 36 31 27 23 33 27 26 170 185
249 246 254 322 343 11 7 357 137 142 125 92 69 71 88 98 100 92 74 58 51 42 37 37 36 34 30 30 40 39 47 41 33 30 27 27 30 32 34 36 37 30 20 16 21 8 358 231 157
239 243 256 339 8 20 344 333 341 235 160 266 146 126 113 108 102 102 90 77 62 51 41 42 36 33 27 21 25 20 33 33 32 31 21 26 34 34 34 27 23 17 20 16 360 342 347 39 102
238 273 297 313 350 338 294 300 340 1 3 40 102 118 126 121 106 97 91 74 64 52 43 45 38 34 27 24 20 21 24 24 28 28 20 26 29 29 26 27 19 9 14 5 355 2 358 15 50
237 239 272 338 335 333 309 291 308 304 20 53 97 101 113 114 101 83 78 75 65 54 43 41 37 34 30 26 15 20 22 21 24 33 30 33 28 20 19 21 17 7 13 5 1 15 12 20 35
236 212 232 238 247 263 268 255 247 232 157 109 114 116 107 104 95 79 63 61 56 50 49 45 41 33 33 29 20 15 16 14 22 33 27 31 30 23 16 17 16 9 6 358 0 13 25 12 45
228 226 240 233 224 218 250 255 232 206 181 174 146 124 106 92 83 68 54 53 52 46 51 53 46 37 34 26 16 20 13 9 16 25 29 30 27 21 20 16 9 6 1 355 6 16 44 21 29
231 233 237 215 212 202 236 250 218 191 190 187 171 142 122 106 87 68 54 52 48 44 48 49 41 33 27 22 14 17 17 8 11 18 24 29 25 19 16 16 10 6 4 6 8 11 37 30 17
219 241 243 222 209 218 225 249 225 217 208 191 168 154 133 113 90 73 60 56 53 46 44 43 47 42 27 16 14 23 20 10 10 18 17 23 21 15 19 18 8 12 21 19 1 17 38 38 21
252 257 260 237 230 260 252 251 234 241 240 197 177 165 140 115 100 86 71 64 57 47 46 45 34 33 29 16 16 29 21 6 5 15 14 18 16 16 21 25 15 22 35 17 17 20 26 32 15
296 284 281 284 288 276 263 263 246 241 231 200 180 161 131 114 101 93 78 66 60 47 38 36 31 18 23 15 6 12 359 348 354 3 6 12 11 14 20 22 23 22 30 25 23 29 30 11 30
289 287 287 286 269 274 268 264 245 229 203 183 173 159 134 112 101 98 90 75 63 51 35 31 28 17 10 3 352 346 332 332 348 360 358 2 7 17 22 25 18 17 19 28 22 33 22 353 20
280 282 293 299 303 262 272 268 220 196 181 163 167 181 141 127 121 108 92 74 65 49 29 15 17 11 360 2 10 4 357 354 359 347 342 353 5 17 28 27 18 12 23 27 13 23 38 344 320
280 307 303 300 301 275 229 277 230 186 190 191 189 187 153 113 107 102 88 71 65 55 35 13 10 3 3 12 20 21 360 331 316 317 326 343 0 8 24 21 15 13 17 8 348 16 21 26 304
301 313 290 280 275 284 245 247 254 176 201 195 173 172 136 108 100 96 93 86 73 67 49 15 2 358 359 358 350 343 334 325 328 328 332 336 344 6 15 9 17 14 18 9 358 359 4 360 331
319 299 273 259 253 259 232 219 259 199 203 171 157 154 114 100 89 82 79 81 79 77 57 16 351 345 345 343 335 339 336 335 337 337 331 326 317 341 360 354 3 1 5 17 357 349 345 338 333
309 329 330 262 229 243 202 212 241 68 91 135 153 137 106 99 89 79 69 64 64 59 39 2 347 334 338 334 327 325 320 312 313 312 313 311 311 318 316 344 338 334 348 9 13 312 299 303 309
255 232 217 263 275 301 252 229 212 129 88 90 112 120 108 95 85 73 50 38 23 29 25 353 332 318 314 312 309 307 309 307 306 304 295 288 292 296 302 332 329 329 347 345 350 305 286 289 295
261 238 293 295 284 276 243 206 149 97 84 80 80 103 115 87 63 46 29 19 346 345 352 326 322 320 315 311 311 311 322 315 310 305 300 296 300 307 320 316 322 328 323 313 324 315 312 327 316
288 309 324 235 276 278 265 225 210 169 155 85 49 31 44 72 49 29 15 353 350 1 337 338 325 314 318 318 313 323 316 311 313 314 311 311 309 310 309 326 324 310 305 317 309 304 311 327 313
203 258 258 255 259 268 288 281 35 120 141 149 197 331 11 39 31 13 352 360 4 1 358 346 331 324 320 318 316 311 306 308 308 307 306 306 306 304 288 302 315 313 313 321 295 272 263 269 288
261 232 184 235 271 260 275 274 46 57 71 71 44 17 31 24 14 7 353 2 0 356 352 347 335 325 314 317 314 305 304 309 307 307 309 317 309 307 298 297 291 299 319 317 299 287 285 266 263
Height
1496 1497 1499 1501 1502 1503 1498 1489 1484 1485 1487 1490 1492 1493 1496 1500 1504 1514 1514 1512 1512 1512 1512 1513 1513 1514 1514 1515 1515 1516 1516 1516 1516 1517 1517 1518 1518 1519 1519 1520 1520 1521 1522 1523 1523 1524 1524 1525 1526
1496 1498 1500 1500 1502 1504 1496 1487 1487 1489 1491 1493 1494 1496 1498 1503 1507 1510 1511 1512 1511 1512 1512 1512 1513 1514 1514 1515 1515 1516 1516 1516 1517 1517 1517 1518 1518 1518 1519 1520 1520 1521 1522 1522 1523 1523 1524 1525 1526
1496 1498 1501 1498 1497 1498 1493 1487 1488 1490 1492 1494 1497 1499 1502 1507 1509 1510 1511 1512 1512 1512 1512 1512 1513 1513 1514 1514 1515 1515 1516 1516 1516 1517 1517 1517 1518 1518 1519 1519 1520 1521 1521 1522 1522 1523 1524 1524 1525
1498 1500 1499 1498 1496 1491 1488 1487 1488 1491 1493 1495 1497 1501 1505 1509 1509 1510 1510 1511 1511 1512 1511 1512 1513 1513 1514 1514 1514 1515 1515 1516 1516 1516 1517 1517 1517 1518 1518 1519 1519 1520 1521 1521 1522 1523 1523 1524 1525
1498 1498 1498 1497 1493 1490 1488 1488 1489 1491 1494 1497 1498 1502 1506 1509 1509 1509 1510 1511 1511 1511 1511 1512 1512 1513 1513 1514 1514 1514 1515 1515 1516 1516 1516 1517 1517 1517 1517 1518 1518 1519 1520 1520 1521 1522 1523 1524 1524
1498 1495 1499 1498 1492 1490 1490 1489 1490 1492 1495 1497 1499 1502 1507 1509 1508 1509 1509 1510 1510 1511 1511 1511 1512 1512 1513 1513 1513 1514 1514 1514 1515 1515 1515 1516 1516 1516 1517 1517 1518 1518 1519 1519 1520 1521 1522 1523 1524
1498 1495 1495 1492 1492 1491 1490 1490 1491 1493 1496 1498 1500 1502 1506 1508 1508 1508 1509 1510 1510 1511 1510 1510 1511 1511 1512 1512 1513 1513 1513 1513 1514 1514 1514 1514 1515 1515 1515 1516 1516 1517 1518 1518 1519 1519 1520 1521 1523
1495 1494 1491 1491 1492 1493 1491 1492 1494 1496 1498 1500 1500 1503 1506 1507 1507 1508 1509 1509 1510 1510 1510 1510 1510 1510 1510 1511 1511 1512 1512 1512 1513 1513 1513 1513 1513 1514 1514 1514 1515 1516 1516 1517 1517 1518 1519 1520 1521
1495 1497 1494 1492 1491 1492 1492 1493 1496 1498 1499 1501 1502 1504 1505 1506 1506 1507 1508 1508 1509 1509 1509 1509 1510 1510 1510 1510 1510 1510 1511 1511 1511 1511 1512 1512 1512 1512 1512 1513 1513 1514 1515 1515 1516 1517 1517 1518 1519
1494 1496 1494 1492 1491 1492 1493 1495 1496 1498 1500 1502 1503 1504 1505 1505 1506 1507 1507 1507 1508 1508 1508 1508 1509 1509 1509 1509 1509 1509 1509 1509 1510 1510 1510 1510 1510 1511 1511 1511 1512 1512 1513 1513 1514 1515 1516 1516 1517
1493 1494 1493 1493 1493 1494 1496 1496 1497 1497 1500 1502 1503 1504 1504 1505 1506 1506 1507 1507 1507 1507 1508 1508 1508 1508 1508 1508 1507 1507 1508 1508 1508 1508 1509 1509 1509 1509 1509 1509 1510 1510 1511 1511 1512 1513 1514 1515 1515
1493 1493 1494 1495 1496 1496 1497 1497 1498 1499 1501 1501 1502 1503 1503 1504 1505 1506 1506 1506 1506 1507 1507 1507 1507 1507 1506 1506 1506 1506 1506 1506 1506 1506 1507 1507 1507 1507 1507 1507 1508 1509 1509 1510 1510 1511 1512 1513 1514
1493 1494 1495 1496 1497 1497 1497 1498 1499 1500 1500 1501 1501 1502 1503 1503 1504 1505 1505 1506 1505 1505 1505 1505 1505 1505 1505 1505 1505 1505 1504 1505 1505 1504 1504 1504 1504 1505 1505 1505 1506 1506 1507 1507 1508 1509 1509 1510 1511
1493 1494 1495 1496 1496 1497 1497 1498 1499 1498 1500 1500 1501 1501 1502 1503 1504 1504 1504 1504 1504 1504 1504 1504 1504 1504 1504 1503 1503 1503 1503 1503 1503 1503 1503 1503 1503 1503 1503 1503 1504 1504 1505 1505 1506 1506 1507 1508 1508
1494 1495 1495 1495 1495 1496 1498 1497 1496 1497 1498 1499 1500 1501 1502 1502 1503 1503 1503 1503 1503 1503 1503 1502 1502 1503 1503 1502 1502 1502 1502 1502 1501 1501 1501 1501 1501 1501 1501 1501 1501 1502 1502 1503 1504 1504 1505 1505 1506
1493 1494 1495 1492 1493 1494 1499 1497 1494 1495 1496 1497 1499 1500 1501 1501 1502 1502 1502 1502 1502 1502 1501 1501 1501 1501 1501 1501 1501 1500 1500 1500 1500 1499 1499 1499 1499 1499 1499 1499 1499 1499 1500 1501 1501 1502 1502 1503 1503
1493 1494 1492 1492 1490 1492 1494 1494 1493 1493 1494 1495 1497 1498 1499 1500 1500 1501 1501 1501 1501 1500 1500 1500 1500 1500 1500 1499 1499 1499 1499 1498 1498 1498 1498 1497 1497 1497 1497 1497 1497 1497 1498 1498 1499 1499 1500 1500 1501
1494 1491 1488 1489 1490 1491 1492 1491 1491 1491 1492 1493 1494 1496 1497 1498 1499 1499 1499 1499 1499 1499 1499 1499 1498 1498 1498 1498 1498 1497 1497 1497 1496 1496 1496 1495 1495 1495 1495 1494 1495 1495 1495 1495 1496 1497 1497 1498 1498
1491 1491 1490 1489 1490 1491 1491 1489 1489 1489 1490 1491 1492 1494 1496 1497 1498 1498 1498 1498 1497 1497 1497 1497 1497 1496 1496 1496 1495 1495 1495 1494 1494 1494 1494 1493 1493 1493 1492 1492 1492 1492 1493 1493 1493 1494 1495 1496 1496
1492 1493 1491 1490 1489 1490 1489 1488 1486 1486 1488 1490 1491 1492 1494 1495 1496 1496 1497 1496 1496 1495 1495 1495 1495 1495 1495 1495 1494 1494 1494 1493 1493 1492 1492 1491 1491 1490 1490 1490 1490 1490 1490 1491 1491 1492 1492 1493 1494
1493 1495 1494 1493 1491 1489 1490 1488 1485 1485 1487 1489 1491 1492 1492 1493 1494 1494 1495 1494 1494 1494 1494 1493 1493 1493 1493 1493 1493 1492 1492 1491 1491 1490 1489 1489 1489 1488 1488 1488 1487 1488 1488 1488 1489 1490 1490 1491 1492
1495 1493 1493 1493 1496 1494 1491 1496 1485 1484 1486 1487 1489 1490 1491 1492 1492 1493 1493 1493 1493 1492 1492 1492 1492 1492 1492 1491 1491 1490 1490 1489 1489 1488 1488 1487 1486 1486 1486 1485 1485 1485 1485 1486 1486 1487 1488 1489 1489
1495 1494 1494 1494 1495 1497 1491 1496 1486 1482 1484 1485 1487 1489 1490 1490 1491 1492 1492 1492 1492 1491 1491 1491 1490 1490 1490 1489 1489 1488 1488 1487 1487 1486 1485 1484 1484 1484 1484 1483 1483 1483 1483 1483 1484 1484 1485 1486 1487
1496 1495 1494 1493 1496 1502 1489 1493 1486 1482 1481 1482 1485 1487 1488 1489 1490 1491 1491 1491 1490 1490 1489 1489 1488 1488 1488 1487 1487 1486 1486 1485 1484 1484 1483 1482 1482 1482 1481 1481 1481 1481 1481 1481 1481 1482 1483 1483 1484
1498 1501 1504 1502 1503 1496 1483 1487 1486 1480 1478 1480 1483 1485 1487 1488 1489 1489 1489 1489 1488 1488 1487 1487 1486 1486 1485 1485 1484 1484 1483 1483 1482 1481 1480 1480 1479 1479 1479 1479 1479 1479 1479 1479 1479 1479 1480 1481 1481
1499 1500 1507 1506 1499 1490 1485 1485 1482 1479 1479 1480 1482 1484 1486 1487 1487 1488 1487 1487 1486 1485 1485 1484 1484 1483 1483 1482 1481 1481 1481 1480 1479 1478 1478 1477 1477 1477 1477 1477 1477 1476 1476 1477 1477 1477 1477 1478 1479
1498 1500 1498 1503 1502 1501 1487 1480 1481 1479 1480 1481 1483 1484 1485 1485 1485 1486 1485 1485 1484 1483 1482 1482 1481 1480 1480 1479 1479 1478 1478 1477 1476 1476 1475 1475 1474 1474 1475 1475 1474 1474 1474 1474 1474 1474 1475 1475 1476
1499 1498 1502 1504 1504 1498 1482 1479 1484 1483 1482 1482 1483 1483 1483 1484 1484 1484 1483 1483 1482 1481 1480 1479 1479 1478 1477 1476 1476 1475 1475 1474 1474 1473 1472 1472 1472 1472 1472 1472 1472 1472 1472 1472 1472 1472 1472 1473 1473
1500 1501 1501 1502 1500 1500 1495 1489 1479 1479 1480 1481 1482 1482 1483 1482 1482 1482 1482 1481 1480 1479 1478 1477 1476 1475 1474 1473 1472 1472 1471 1471 1471 1470 1470 1469 1469 1469 1469 1469 1469 1469 1469 1469 1469 1469 1470 1470 1470
1497 1498 1502 1509 1506 1500 1499 1494 1479 1479 1479 1481 1481 1482 1481 1481 1481 1480 1480 1479 1478 1477 1475 1474 1473 1472 1471 1470 1469 1468 1468 1468 1467 1467 1467 1466 1466 1466 1466 1467 1466 1466 1466 1466 1466 1466 1466 1467 1467